Location: ScottNC Observatory
(36.0892°N, 80.4832°W)
Time: 18:08:40
(UTC-05:00)

DX 1 - Visible Passes

Search period start: 15 November 2019 00:00
Search period end: 25 November 2019 00:00
Orbit: 618 x 632 km, 98.4° (Epoch: 15 November)

Date Brightness Start Highest point End Pass type
(mag) Time Alt. Az. Time Alt. Az. Time Alt. Az.
15 Nov ? 17:38:42 10° N 17:42:46 41° WNW 17:46:49 10° SW visible
16 Nov ? 17:57:55 10° NNW 18:01:29 26° WNW 18:05:03 10° SW visible
17 Nov ? 18:17:26 10° NNW 18:20:09 16° WNW 18:22:51 10° WSW visible
18 Nov ? 18:38:15 10° WNW 18:38:45 10° WNW 18:39:16 10° WNW visible
20 Nov ? 17:36:39 10° N 17:40:47 45° WNW 17:44:54 10° SW visible
21 Nov ? 17:55:49 10° NNW 17:59:30 28° WNW 18:03:11 10° SW visible
22 Nov ? 18:15:16 10° NNW 18:18:10 18° WNW 18:21:05 10° WSW visible
23 Nov ? 18:35:29 10° NW 18:36:48 11° WNW 18:38:06 10° W visible
